Year,Month,Day,Hour,Minute,Value (Times are PST for temperature in C)
2005,05,24,00,00,9.60
2005,05,24,00,01,9.60
2005,05,24,00,02,9.60
2005,05,24,00,03,9.60
2005,05,24,00,04,9.60
2005,05,24,00,05,9.60
2005,05,24,00,06,9.60
2005,05,24,00,07,9.60
2005,05,24,00,08,9.60
2005,05,24,00,09,9.60
2005,05,24,00,10,9.50
2005,05,24,00,11,9.50
2005,05,24,00,13,9.40
2005,05,24,00,14,9.40
2005,05,24,00,17,9.20
2005,05,24,00,18,9.20
2005,05,24,00,19,9.10
2005,05,24,00,20,9.10
2005,05,24,00,29,8.80
2005,05,24,00,33,8.70
2005,05,24,00,41,8.70
2005,05,24,00,45,8.60
2005,05,24,00,46,8.50
2005,05,24,00,47,8.50
2005,05,24,00,49,8.50
2005,05,24,00,52,8.30
2005,05,24,00,53,8.30
2005,05,24,00,55,8.30
2005,05,24,00,57,8.30
2005,05,24,00,58,8.30
2005,05,24,00,59,8.30
2005,05,24,01,00,8.40
2005,05,24,01,03,8.40
2005,05,24,01,05,8.50
2005,05,24,01,06,8.50
2005,05,24,01,08,8.40
2005,05,24,01,09,8.40
2005,05,24,01,10,8.40
2005,05,24,01,11,8.40
2005,05,24,01,14,8.40
2005,05,24,01,17,8.40
2005,05,24,01,20,8.40
2005,05,24,01,22,8.20
2005,05,24,01,24,8.20
2005,05,24,01,27,8.10
2005,05,24,01,29,8.00
2005,05,24,01,31,8.00
2005,05,24,01,32,8.00
2005,05,24,01,34,8.00
2005,05,24,01,35,8.00
2005,05,24,01,36,7.90
2005,05,24,01,37,7.90
2005,05,24,01,38,7.90
2005,05,24,01,39,7.90
2005,05,24,01,40,7.90
2005,05,24,01,41,7.90
2005,05,24,01,42,7.90
2005,05,24,01,43,7.90
2005,05,24,01,44,7.90
2005,05,24,01,45,7.90
2005,05,24,01,46,7.90
2005,05,24,01,47,7.90
2005,05,24,01,48,7.90
2005,05,24,01,49,7.80
2005,05,24,01,50,7.80
2005,05,24,01,51,7.80
2005,05,24,01,52,7.80
2005,05,24,01,53,7.80
2005,05,24,01,54,7.80
2005,05,24,01,55,7.70
2005,05,24,01,56,7.70
2005,05,24,01,57,7.70
2005,05,24,01,58,7.60
2005,05,24,01,59,7.60
2005,05,24,02,00,7.60
2005,05,24,02,01,7.50
2005,05,24,02,02,7.50
2005,05,24,02,03,7.50
2005,05,24,02,04,7.50
2005,05,24,02,05,7.50
2005,05,24,02,06,7.50
2005,05,24,02,07,7.50
2005,05,24,02,08,7.50
2005,05,24,02,09,7.60
2005,05,24,02,10,7.60
2005,05,24,02,11,7.60
2005,05,24,02,12,7.70
2005,05,24,02,13,7.70
2005,05,24,02,14,7.70
2005,05,24,02,15,7.70
2005,05,24,02,16,7.70
2005,05,24,02,17,7.70
2005,05,24,02,18,7.60
2005,05,24,02,19,7.60
2005,05,24,02,20,7.50
2005,05,24,02,21,7.40
2005,05,24,02,22,7.30
2005,05,24,02,23,7.30
2005,05,24,02,24,7.20
2005,05,24,02,25,7.10
2005,05,24,02,26,7.10
2005,05,24,02,27,7.00
2005,05,24,02,28,7.00
2005,05,24,02,29,7.00
2005,05,24,02,30,6.90
2005,05,24,02,31,6.90
2005,05,24,02,32,6.90
2005,05,24,02,33,6.90
2005,05,24,02,34,7.00
2005,05,24,02,35,7.00
2005,05,24,02,36,7.00
2005,05,24,02,37,7.00
2005,05,24,02,38,7.00
2005,05,24,02,39,7.00
2005,05,24,02,40,7.10
2005,05,24,02,41,7.10
2005,05,24,02,42,7.10
2005,05,24,02,43,7.10
2005,05,24,02,44,7.10
2005,05,24,02,45,7.10
2005,05,24,02,46,7.20
2005,05,24,02,47,7.20
2005,05,24,02,48,7.10
2005,05,24,02,49,7.10
2005,05,24,02,50,7.00
2005,05,24,02,51,7.00
2005,05,24,02,52,7.00
2005,05,24,02,53,7.00
2005,05,24,02,54,7.00
2005,05,24,02,55,7.00
2005,05,24,02,56,6.90
2005,05,24,02,57,6.90
2005,05,24,02,58,6.90
2005,05,24,02,59,6.90
2005,05,24,03,00,6.90
2005,05,24,03,01,6.80
2005,05,24,03,02,6.80
2005,05,24,03,03,6.80
2005,05,24,03,04,6.80
2005,05,24,03,05,6.90
2005,05,24,03,06,7.00
2005,05,24,03,07,7.10
2005,05,24,03,08,7.10
2005,05,24,03,09,7.20
2005,05,24,03,10,7.30
2005,05,24,03,11,7.30
2005,05,24,03,12,7.30
2005,05,24,03,13,7.30
2005,05,24,03,14,7.30
2005,05,24,03,15,7.30
2005,05,24,03,16,7.30
2005,05,24,03,17,7.30
2005,05,24,03,18,7.30
2005,05,24,03,19,7.30
2005,05,24,03,20,7.20
2005,05,24,03,21,7.20
2005,05,24,03,22,7.20
2005,05,24,03,23,7.20
2005,05,24,03,24,7.20
2005,05,24,03,25,7.30
2005,05,24,03,26,7.30
2005,05,24,03,27,7.30
2005,05,24,03,28,7.30
2005,05,24,03,29,7.30
2005,05,24,03,30,7.30
2005,05,24,03,31,7.30
2005,05,24,03,32,7.30
2005,05,24,03,33,7.20
2005,05,24,03,34,7.20
2005,05,24,03,35,7.10
2005,05,24,03,36,7.10
2005,05,24,03,37,7.10
2005,05,24,03,38,7.10
2005,05,24,03,39,7.10
2005,05,24,03,40,7.10
2005,05,24,03,41,7.10
2005,05,24,03,42,7.10
2005,05,24,03,43,7.10
2005,05,24,03,44,7.10
2005,05,24,03,45,7.10
2005,05,24,03,46,7.10
2005,05,24,03,47,7.10
2005,05,24,03,48,7.10
2005,05,24,03,49,7.20
2005,05,24,03,50,7.20
2005,05,24,03,51,7.20
2005,05,24,03,52,7.20
2005,05,24,03,53,7.20
2005,05,24,03,54,7.20
2005,05,24,03,55,7.20
2005,05,24,03,56,7.20
2005,05,24,03,57,7.20
2005,05,24,03,58,7.20
2005,05,24,03,59,7.20
2005,05,24,04,00,7.20
2005,05,24,04,01,7.20
2005,05,24,04,02,7.20
2005,05,24,04,03,7.20
2005,05,24,04,04,7.20
2005,05,24,04,05,7.20
2005,05,24,04,06,7.20
2005,05,24,04,07,7.20
2005,05,24,04,08,7.30
2005,05,24,04,09,7.30
2005,05,24,04,10,7.30
2005,05,24,04,11,7.30
2005,05,24,04,12,7.30
2005,05,24,04,13,7.20
2005,05,24,04,14,7.20
2005,05,24,04,15,7.20
2005,05,24,04,16,7.20
2005,05,24,04,17,7.20
2005,05,24,04,18,7.30
2005,05,24,04,19,7.30
2005,05,24,04,20,7.20
2005,05,24,04,21,7.20
2005,05,24,04,22,7.20
2005,05,24,04,23,7.20
2005,05,24,04,24,7.20
2005,05,24,04,25,7.20
2005,05,24,04,26,7.20
2005,05,24,04,27,7.10
2005,05,24,04,28,7.10
2005,05,24,04,29,7.10
2005,05,24,04,30,7.10
2005,05,24,04,31,7.10
2005,05,24,04,32,7.10
2005,05,24,04,33,7.00
2005,05,24,04,34,7.00
2005,05,24,04,35,7.00
2005,05,24,04,36,6.90
2005,05,24,04,37,6.90
2005,05,24,04,38,6.90
2005,05,24,04,39,6.90
2005,05,24,04,40,6.80
2005,05,24,04,41,6.80
2005,05,24,04,42,6.80
2005,05,24,04,43,6.80
2005,05,24,04,44,6.80
2005,05,24,04,45,6.80
2005,05,24,04,46,6.80
2005,05,24,04,47,6.80
2005,05,24,04,48,6.70
2005,05,24,04,49,6.70
2005,05,24,04,50,6.70
2005,05,24,04,51,6.70
2005,05,24,04,52,6.60
2005,05,24,04,53,6.60
2005,05,24,04,54,6.60
2005,05,24,04,55,6.60
2005,05,24,04,56,6.60
2005,05,24,04,57,6.60
2005,05,24,04,58,6.60
2005,05,24,04,59,6.60
2005,05,24,05,00,6.50
2005,05,24,05,01,6.40
2005,05,24,05,02,6.40
2005,05,24,05,03,6.40
2005,05,24,05,04,6.40
2005,05,24,05,05,6.40
2005,05,24,05,06,6.40
2005,05,24,05,07,6.30
2005,05,24,05,08,6.30
2005,05,24,05,09,6.20
2005,05,24,05,10,6.20
2005,05,24,05,11,6.20
2005,05,24,05,12,6.20
2005,05,24,05,13,6.20
2005,05,24,05,14,6.20
2005,05,24,05,15,6.20
2005,05,24,05,16,6.20
2005,05,24,05,17,6.20
2005,05,24,05,18,6.20
2005,05,24,05,19,6.20
2005,05,24,05,20,6.20
2005,05,24,05,21,6.20
2005,05,24,05,22,6.20
2005,05,24,05,23,6.20
2005,05,24,05,24,6.20
2005,05,24,05,25,6.20
2005,05,24,05,26,6.20
2005,05,24,05,27,6.20
2005,05,24,05,28,6.20
2005,05,24,05,29,6.20
2005,05,24,05,30,6.20
2005,05,24,05,31,6.20
2005,05,24,05,32,6.20
2005,05,24,05,33,6.20
2005,05,24,05,34,6.20
2005,05,24,05,35,6.20
2005,05,24,05,36,6.20
2005,05,24,05,37,6.20
2005,05,24,05,38,6.20
2005,05,24,05,39,6.20
2005,05,24,05,40,6.20
2005,05,24,05,41,6.20
2005,05,24,05,42,6.20
2005,05,24,05,43,6.20
2005,05,24,05,44,6.20
2005,05,24,05,45,6.20
2005,05,24,05,46,6.20
2005,05,24,05,47,6.20
2005,05,24,05,48,6.20
2005,05,24,05,49,6.20
2005,05,24,05,50,6.20
2005,05,24,05,51,6.20
2005,05,24,05,52,6.20
2005,05,24,05,53,6.30
2005,05,24,05,54,6.30
2005,05,24,05,55,6.40
2005,05,24,05,56,6.40
2005,05,24,05,57,6.60
2005,05,24,05,58,6.60
2005,05,24,05,59,6.70
2005,05,24,06,00,6.80
2005,05,24,06,01,6.80
2005,05,24,06,02,6.80
2005,05,24,06,03,6.90
2005,05,24,06,04,6.90
2005,05,24,06,05,6.90
2005,05,24,06,06,6.90
2005,05,24,06,07,6.90
2005,05,24,06,08,6.90
2005,05,24,06,09,7.00
2005,05,24,06,10,7.00
2005,05,24,06,11,7.00
2005,05,24,06,12,7.10
2005,05,24,06,13,7.10
2005,05,24,06,14,7.10
2005,05,24,06,15,7.10
2005,05,24,06,16,7.20
2005,05,24,06,17,7.20
2005,05,24,06,18,7.30
2005,05,24,06,19,7.30
2005,05,24,06,20,7.40
2005,05,24,06,21,7.40
2005,05,24,06,22,7.50
2005,05,24,06,23,7.50
2005,05,24,06,24,7.50
2005,05,24,06,25,7.60
2005,05,24,06,26,7.60
2005,05,24,06,27,7.60
2005,05,24,06,28,7.70
2005,05,24,06,29,7.80
2005,05,24,06,30,7.90
2005,05,24,06,31,7.90
2005,05,24,06,32,8.00
2005,05,24,06,33,8.00
2005,05,24,06,34,8.00
2005,05,24,06,35,8.10
2005,05,24,06,36,8.20
2005,05,24,06,37,8.20
2005,05,24,06,38,8.30
2005,05,24,06,39,8.40
2005,05,24,06,40,8.40
2005,05,24,06,41,8.40
2005,05,24,06,42,8.50
2005,05,24,06,43,8.50
2005,05,24,06,44,8.50
2005,05,24,06,45,8.60
2005,05,24,06,46,8.60
2005,05,24,06,47,8.70
2005,05,24,06,48,8.70
2005,05,24,06,49,8.70
2005,05,24,06,50,8.70
2005,05,24,06,51,8.80
2005,05,24,06,52,8.80
2005,05,24,06,53,8.90
2005,05,24,06,54,8.90
2005,05,24,06,55,9.00
2005,05,24,06,56,9.10
2005,05,24,06,57,9.20
2005,05,24,06,58,9.40
2005,05,24,06,59,9.40
2005,05,24,07,00,9.50
2005,05,24,07,01,9.70
2005,05,24,07,02,9.70
2005,05,24,07,03,9.80
2005,05,24,07,04,9.80
2005,05,24,07,05,9.80
2005,05,24,07,06,9.90
2005,05,24,07,07,9.90
2005,05,24,07,08,10.00
2005,05,24,07,09,10.10
2005,05,24,07,10,10.10
2005,05,24,07,11,10.10
2005,05,24,07,12,10.20
2005,05,24,07,13,10.30
2005,05,24,07,14,10.40
2005,05,24,07,15,10.50
2005,05,24,07,16,10.60
2005,05,24,07,17,10.60
2005,05,24,07,18,10.70
2005,05,24,07,19,10.90
2005,05,24,07,20,11.00
2005,05,24,07,21,11.10
2005,05,24,07,22,11.20
2005,05,24,07,23,11.30
2005,05,24,07,24,11.40
2005,05,24,07,25,11.50
2005,05,24,07,26,11.60
2005,05,24,07,27,11.70
2005,05,24,07,28,11.80
2005,05,24,07,29,11.80
2005,05,24,07,30,11.90
2005,05,24,07,31,12.00
2005,05,24,07,32,12.00
2005,05,24,07,33,11.90
2005,05,24,07,34,11.80
2005,05,24,07,35,11.80
2005,05,24,07,36,11.80
2005,05,24,07,37,11.80
2005,05,24,07,38,11.80
2005,05,24,07,39,11.80
2005,05,24,07,40,11.80
2005,05,24,07,41,11.80
2005,05,24,07,42,11.80
2005,05,24,07,43,11.80
2005,05,24,07,44,11.80
2005,05,24,07,45,11.80
2005,05,24,07,46,11.90
2005,05,24,07,47,12.00
2005,05,24,07,48,12.00
2005,05,24,07,49,12.10
2005,05,24,07,50,12.20
2005,05,24,07,51,12.30
2005,05,24,07,52,12.40
2005,05,24,07,53,12.50
2005,05,24,07,54,12.60
2005,05,24,07,55,12.70
2005,05,24,07,56,12.80
2005,05,24,07,57,12.80
2005,05,24,07,58,12.90
2005,05,24,07,59,13.00
2005,05,24,08,00,13.00
2005,05,24,08,01,13.10
2005,05,24,08,02,13.20
2005,05,24,08,03,13.20
2005,05,24,08,04,13.20
2005,05,24,08,05,13.30
2005,05,24,08,06,13.30
2005,05,24,08,07,13.40
2005,05,24,08,08,13.50
2005,05,24,08,09,13.50
2005,05,24,08,10,13.60
2005,05,24,08,11,13.60
2005,05,24,08,12,13.60
2005,05,24,08,13,13.70
2005,05,24,08,14,13.70
2005,05,24,08,15,13.70
2005,05,24,08,16,13.80
2005,05,24,08,17,13.80
2005,05,24,08,18,13.80
2005,05,24,08,19,13.80
2005,05,24,08,20,13.80
2005,05,24,08,21,13.80
2005,05,24,08,22,13.80
2005,05,24,08,23,13.80
2005,05,24,08,24,13.80
2005,05,24,08,25,13.90
2005,05,24,08,26,13.90
2005,05,24,08,27,14.00
2005,05,24,08,28,14.10
2005,05,24,08,29,14.20
2005,05,24,08,30,14.20
2005,05,24,08,31,14.40
2005,05,24,08,32,14.40
2005,05,24,08,33,14.50
2005,05,24,08,34,14.50
2005,05,24,08,35,14.60
2005,05,24,08,36,14.60
2005,05,24,08,37,14.60
2005,05,24,08,38,14.60
2005,05,24,08,39,14.50
2005,05,24,08,40,14.30
2005,05,24,08,41,14.20
2005,05,24,08,42,14.10
2005,05,24,08,43,13.90
2005,05,24,08,44,13.70
2005,05,24,08,45,13.60
2005,05,24,08,46,13.50
2005,05,24,08,47,13.40
2005,05,24,08,48,13.40
2005,05,24,08,49,13.40
2005,05,24,08,50,13.30
2005,05,24,08,51,13.30
2005,05,24,08,52,13.30
2005,05,24,08,53,13.30
2005,05,24,08,54,13.30
2005,05,24,08,55,13.30
2005,05,24,08,56,13.30
2005,05,24,08,57,13.30
2005,05,24,08,58,13.40
2005,05,24,08,59,13.40
2005,05,24,09,00,13.40
2005,05,24,09,01,13.30
2005,05,24,09,02,13.40
2005,05,24,09,03,13.50
2005,05,24,09,04,13.50
2005,05,24,09,05,13.60
2005,05,24,09,06,13.60
2005,05,24,09,07,13.60
2005,05,24,09,08,13.50
2005,05,24,09,09,13.60
2005,05,24,09,10,13.60
2005,05,24,09,11,13.60
2005,05,24,09,12,13.70
2005,05,24,09,13,13.70
2005,05,24,09,14,13.70
2005,05,24,09,15,13.70
2005,05,24,09,16,13.70
2005,05,24,09,17,13.80
2005,05,24,09,18,13.80
2005,05,24,09,19,13.80
2005,05,24,09,20,13.90
2005,05,24,09,21,13.90
2005,05,24,09,22,14.10
2005,05,24,09,23,14.20
2005,05,24,09,24,14.10
2005,05,24,09,25,14.10
2005,05,24,09,26,14.10
2005,05,24,09,27,14.20
2005,05,24,09,28,14.30
2005,05,24,09,29,14.40
2005,05,24,09,30,14.50
2005,05,24,09,31,14.50
2005,05,24,09,32,14.60
2005,05,24,09,33,14.70
2005,05,24,09,34,14.80
2005,05,24,09,35,14.80
2005,05,24,09,36,14.80
2005,05,24,09,37,14.80
2005,05,24,09,38,14.60
2005,05,24,09,39,14.50
2005,05,24,09,40,14.60
2005,05,24,09,41,14.70
2005,05,24,09,42,14.90
2005,05,24,09,43,15.10
2005,05,24,09,44,15.30
2005,05,24,09,45,15.40
2005,05,24,09,46,15.60
2005,05,24,09,47,15.70
2005,05,24,09,48,15.80
2005,05,24,09,49,15.80
2005,05,24,09,50,15.70
2005,05,24,09,51,15.70
2005,05,24,09,52,15.80
2005,05,24,09,53,15.80
2005,05,24,09,54,15.80
2005,05,24,09,55,15.80
2005,05,24,09,56,15.90
2005,05,24,09,57,15.90
2005,05,24,09,58,15.80
2005,05,24,09,59,15.80
2005,05,24,10,00,15.80
2005,05,24,10,01,15.90
2005,05,24,10,02,15.90
2005,05,24,10,03,15.90
2005,05,24,10,04,15.90
2005,05,24,10,05,16.00
2005,05,24,10,06,16.10
2005,05,24,10,07,16.10
2005,05,24,10,08,16.10
2005,05,24,10,09,15.80
2005,05,24,10,10,15.70
2005,05,24,10,11,15.50
2005,05,24,10,12,15.50
2005,05,24,10,13,15.50
2005,05,24,10,14,15.60
2005,05,24,10,15,15.60
2005,05,24,10,16,15.60
2005,05,24,10,17,15.60
2005,05,24,10,18,15.50
2005,05,24,10,19,15.50
2005,05,24,10,20,15.50
2005,05,24,10,21,15.50
2005,05,24,10,22,15.50
2005,05,24,10,23,15.40
2005,05,24,10,24,15.40
2005,05,24,10,25,15.40
2005,05,24,10,26,15.30
2005,05,24,10,27,15.20
2005,05,24,10,28,15.20
2005,05,24,10,29,15.10
2005,05,24,10,30,15.10
2005,05,24,10,31,15.00
2005,05,24,10,32,15.10
2005,05,24,10,33,15.10
2005,05,24,10,34,15.20
2005,05,24,10,35,15.30
2005,05,24,10,36,15.30
2005,05,24,10,37,15.30
2005,05,24,10,38,15.20
2005,05,24,10,39,15.20
2005,05,24,10,40,15.20
2005,05,24,10,41,15.20
2005,05,24,10,42,15.30
2005,05,24,10,43,15.30
2005,05,24,10,44,15.40
2005,05,24,10,45,15.40
2005,05,24,10,46,15.50
2005,05,24,10,47,15.50
2005,05,24,10,48,15.40
2005,05,24,10,49,15.30
2005,05,24,10,50,15.30
2005,05,24,10,51,15.30
2005,05,24,10,52,15.30
2005,05,24,10,53,15.40
2005,05,24,10,54,15.40
2005,05,24,10,55,15.40
2005,05,24,10,56,15.50
2005,05,24,10,57,15.50
2005,05,24,10,58,15.60
2005,05,24,10,59,15.70
2005,05,24,11,00,15.80
2005,05,24,11,01,15.80
2005,05,24,11,02,15.80
2005,05,24,11,03,16.00
2005,05,24,11,04,16.10
2005,05,24,11,05,16.20
2005,05,24,11,06,16.40
2005,05,24,11,07,16.40
2005,05,24,11,08,16.60
2005,05,24,11,09,16.60
2005,05,24,11,10,16.70
2005,05,24,11,11,16.60
2005,05,24,11,12,16.50
2005,05,24,11,13,16.30
2005,05,24,11,14,16.10
2005,05,24,11,15,15.90
2005,05,24,11,16,15.70
2005,05,24,11,17,15.50
2005,05,24,11,18,15.40
2005,05,24,11,19,15.20
2005,05,24,11,20,15.10
2005,05,24,11,21,15.00
2005,05,24,11,22,14.90
2005,05,24,11,23,14.80
2005,05,24,11,24,14.70
2005,05,24,11,25,14.60
2005,05,24,11,26,14.50
2005,05,24,11,27,14.40
2005,05,24,11,28,14.30
2005,05,24,11,29,14.20
2005,05,24,11,30,14.20
2005,05,24,11,31,14.20
2005,05,24,11,32,14.30
2005,05,24,11,33,14.30
2005,05,24,11,34,14.20
2005,05,24,11,35,14.20
2005,05,24,11,36,14.30
2005,05,24,11,37,14.30
2005,05,24,11,38,14.20
2005,05,24,11,39,14.20
2005,05,24,11,40,14.20
2005,05,24,11,41,14.30
2005,05,24,11,42,14.50
2005,05,24,11,43,14.60
2005,05,24,11,44,14.70
2005,05,24,11,45,14.80
2005,05,24,11,46,14.80
2005,05,24,11,47,14.90
2005,05,24,11,48,15.00
2005,05,24,11,49,15.00
2005,05,24,11,50,15.00
2005,05,24,11,51,15.00
2005,05,24,11,52,15.00
2005,05,24,11,53,15.10
2005,05,24,11,54,15.30
2005,05,24,11,55,15.20
2005,05,24,11,56,15.20
2005,05,24,11,57,15.20
2005,05,24,11,58,15.30
2005,05,24,11,59,15.40
2005,05,24,12,00,15.60
2005,05,24,12,01,15.70
2005,05,24,12,02,15.70
2005,05,24,12,03,15.80
2005,05,24,12,04,15.80
2005,05,24,12,06,15.80
2005,05,24,12,07,15.80
2005,05,24,12,08,15.80
2005,05,24,12,09,15.80
2005,05,24,12,10,15.80
2005,05,24,12,11,15.80
2005,05,24,12,12,15.90
2005,05,24,12,13,16.00
2005,05,24,12,14,16.10
2005,05,24,12,15,16.10
2005,05,24,12,16,16.10
2005,05,24,12,17,16.10
2005,05,24,12,18,15.90
2005,05,24,12,19,15.90
2005,05,24,12,20,16.10
2005,05,24,12,21,16.40
2005,05,24,12,22,16.60
2005,05,24,12,23,16.70
2005,05,24,12,24,16.80
2005,05,24,12,25,17.00
2005,05,24,12,26,17.10
2005,05,24,12,27,17.00
2005,05,24,12,28,16.80
2005,05,24,12,29,16.70
2005,05,24,12,30,16.70
2005,05,24,12,31,16.60
2005,05,24,12,32,16.40
2005,05,24,12,33,16.30
2005,05,24,12,34,16.10
2005,05,24,12,35,15.90
2005,05,24,12,36,15.80
2005,05,24,12,37,15.80
2005,05,24,12,38,15.70
2005,05,24,12,39,15.70
2005,05,24,12,40,15.80
2005,05,24,12,41,15.90
2005,05,24,12,42,15.90
2005,05,24,12,43,16.00
2005,05,24,12,44,16.10
2005,05,24,12,45,16.10
2005,05,24,12,46,16.20
2005,05,24,12,47,16.30
2005,05,24,12,48,16.40
2005,05,24,12,49,16.70
2005,05,24,12,50,16.90
2005,05,24,12,51,17.10
2005,05,24,12,52,17.20
2005,05,24,12,53,17.20
2005,05,24,12,54,17.20
2005,05,24,12,55,17.20
2005,05,24,12,56,17.20
2005,05,24,12,57,17.20
2005,05,24,12,58,17.20
2005,05,24,12,59,17.30
2005,05,24,13,00,17.20
2005,05,24,13,01,17.00
2005,05,24,13,02,16.90
2005,05,24,13,03,16.90
2005,05,24,13,04,17.00
2005,05,24,13,05,17.00
2005,05,24,13,06,17.00
2005,05,24,13,07,17.20
2005,05,24,13,08,17.30
2005,05,24,13,09,17.30
2005,05,24,13,10,17.30
2005,05,24,13,11,17.30
2005,05,24,13,12,17.30
2005,05,24,13,13,17.20
2005,05,24,13,14,17.10
2005,05,24,13,15,17.20
2005,05,24,13,16,17.10
2005,05,24,13,17,17.00
2005,05,24,13,18,16.80
2005,05,24,13,19,16.60
2005,05,24,13,20,16.50
2005,05,24,13,21,16.60
2005,05,24,13,22,16.70
2005,05,24,13,23,16.80
2005,05,24,13,24,16.80
2005,05,24,13,25,17.00
2005,05,24,13,26,17.00
2005,05,24,13,27,17.00
2005,05,24,13,28,17.00
2005,05,24,13,29,16.90
2005,05,24,13,30,16.80
2005,05,24,13,31,16.70
2005,05,24,13,32,16.60
2005,05,24,13,33,16.50
2005,05,24,13,34,16.40
2005,05,24,13,35,16.40
2005,05,24,13,36,16.50
2005,05,24,13,37,16.60
2005,05,24,13,38,16.60
2005,05,24,13,39,16.70
2005,05,24,13,40,16.70
2005,05,24,13,41,16.80
2005,05,24,13,42,16.80
2005,05,24,13,43,16.80
2005,05,24,13,44,16.90
2005,05,24,13,45,17.00
2005,05,24,13,46,17.20
2005,05,24,13,47,17.30
2005,05,24,13,48,17.30
2005,05,24,13,49,17.30
2005,05,24,13,50,17.30
2005,05,24,13,51,17.40
2005,05,24,13,52,17.60
2005,05,24,13,53,17.70
2005,05,24,13,54,17.80
2005,05,24,13,55,17.90
2005,05,24,13,56,18.10
2005,05,24,13,57,18.10
2005,05,24,13,58,18.00
2005,05,24,13,59,17.90
2005,05,24,14,00,17.90
2005,05,24,14,01,17.80
2005,05,24,14,02,17.60
2005,05,24,14,03,17.40
2005,05,24,14,04,17.40
2005,05,24,14,05,17.40
2005,05,24,14,06,17.30
2005,05,24,14,07,17.30
2005,05,24,14,08,17.20
2005,05,24,14,09,17.10
2005,05,24,14,10,17.00
2005,05,24,14,11,16.80
2005,05,24,14,12,16.70
2005,05,24,14,13,16.80
2005,05,24,14,14,16.90
2005,05,24,14,15,17.00
2005,05,24,14,16,17.00
2005,05,24,14,17,16.90
2005,05,24,14,18,16.90
2005,05,24,14,19,16.90
2005,05,24,14,20,16.90
2005,05,24,14,21,16.90
2005,05,24,14,22,16.80
2005,05,24,14,23,16.70
2005,05,24,14,24,16.70
2005,05,24,14,25,16.70
2005,05,24,14,26,16.70
2005,05,24,14,27,16.60
2005,05,24,14,28,16.50
2005,05,24,14,29,16.40
2005,05,24,14,30,16.40
2005,05,24,14,31,16.30
2005,05,24,14,32,16.30
2005,05,24,14,33,16.20
2005,05,24,14,34,16.20
2005,05,24,14,35,16.20
2005,05,24,14,36,16.30
2005,05,24,14,37,16.40
2005,05,24,14,38,16.40
2005,05,24,14,39,16.40
2005,05,24,14,40,16.60
2005,05,24,14,41,16.50
2005,05,24,14,42,16.40
2005,05,24,14,43,16.40
2005,05,24,14,44,16.40
2005,05,24,14,45,16.40
2005,05,24,14,46,16.40
2005,05,24,14,47,16.30
2005,05,24,14,48,16.30
2005,05,24,14,49,16.40
2005,05,24,14,50,16.40
2005,05,24,14,51,16.50
2005,05,24,14,52,16.70
2005,05,24,14,53,16.80
2005,05,24,14,54,16.90
2005,05,24,14,55,17.00
2005,05,24,14,56,17.10
2005,05,24,14,57,17.00
2005,05,24,14,58,17.00
2005,05,24,14,59,17.00
2005,05,24,15,00,17.00
2005,05,24,15,01,17.00
2005,05,24,15,02,16.90
2005,05,24,15,03,16.90
2005,05,24,15,04,16.80
2005,05,24,15,05,16.70
2005,05,24,15,06,16.60
2005,05,24,15,07,16.60
2005,05,24,15,08,16.60
2005,05,24,15,09,16.60
2005,05,24,15,10,16.60
2005,05,24,15,11,16.60
2005,05,24,15,12,16.70
2005,05,24,15,13,16.70
2005,05,24,15,14,16.80
2005,05,24,15,15,17.00
2005,05,24,15,16,17.10
2005,05,24,15,17,17.30
2005,05,24,15,18,17.40
2005,05,24,15,19,17.60
2005,05,24,15,20,17.70
2005,05,24,15,21,17.80
2005,05,24,15,22,17.90
2005,05,24,15,23,17.80
2005,05,24,15,24,17.80
2005,05,24,15,25,17.80
2005,05,24,15,26,17.80
2005,05,24,15,27,17.70
2005,05,24,15,28,17.70
2005,05,24,15,29,17.70
2005,05,24,15,30,17.90
2005,05,24,15,31,17.90
2005,05,24,15,32,18.00
2005,05,24,15,33,17.90
2005,05,24,15,34,18.00
2005,05,24,15,35,18.10
2005,05,24,15,36,18.10
2005,05,24,15,37,18.10
2005,05,24,15,38,18.20
2005,05,24,15,39,18.20
2005,05,24,15,40,18.20
2005,05,24,15,41,18.20
2005,05,24,15,42,18.20
2005,05,24,15,43,18.20
2005,05,24,15,44,18.30
2005,05,24,15,45,18.40
2005,05,24,15,46,18.30
2005,05,24,15,47,18.30
2005,05,24,15,48,18.30
2005,05,24,15,49,18.40
2005,05,24,15,50,18.50
2005,05,24,15,51,18.50
2005,05,24,15,52,18.50
2005,05,24,15,53,18.50
2005,05,24,15,54,18.60
2005,05,24,15,55,18.60
2005,05,24,15,56,18.60
2005,05,24,15,57,18.50
2005,05,24,15,58,18.50
2005,05,24,15,59,18.40
2005,05,24,16,00,18.30
2005,05,24,16,01,18.20
2005,05,24,16,02,18.20
2005,05,24,16,03,18.20
2005,05,24,16,04,18.30
2005,05,24,16,05,18.50
2005,05,24,16,06,18.60
2005,05,24,16,07,18.60
2005,05,24,16,08,18.70
2005,05,24,16,09,18.80
2005,05,24,16,10,18.70
2005,05,24,16,11,18.70
2005,05,24,16,12,18.70
2005,05,24,16,13,18.70
2005,05,24,16,14,18.70
2005,05,24,16,15,18.70
2005,05,24,16,16,18.50
2005,05,24,16,17,18.50
2005,05,24,16,18,18.40
2005,05,24,16,19,18.20
2005,05,24,16,20,18.20
2005,05,24,16,21,18.00
2005,05,24,16,22,17.80
2005,05,24,16,23,17.70
2005,05,24,16,24,17.50
2005,05,24,16,25,17.40
2005,05,24,16,26,17.30
2005,05,24,16,27,17.30
2005,05,24,16,28,17.30
2005,05,24,16,29,17.30
2005,05,24,16,30,17.20
2005,05,24,16,31,17.20
2005,05,24,16,32,17.20
2005,05,24,16,33,17.30
2005,05,24,16,34,17.30
2005,05,24,16,35,17.30
2005,05,24,16,36,17.10
2005,05,24,16,37,17.10
2005,05,24,16,38,17.10
2005,05,24,16,39,17.00
2005,05,24,16,40,16.90
2005,05,24,16,41,16.90
2005,05,24,16,42,16.80
2005,05,24,16,43,16.80
2005,05,24,16,44,16.70
2005,05,24,16,45,16.70
2005,05,24,16,46,16.80
2005,05,24,16,47,16.90
2005,05,24,16,48,16.90
2005,05,24,16,49,16.90
2005,05,24,16,50,16.80
2005,05,24,16,51,16.70
2005,05,24,16,52,16.70
2005,05,24,16,53,16.70
2005,05,24,16,54,16.70
2005,05,24,16,55,16.60
2005,05,24,16,56,16.60
2005,05,24,16,57,16.60
2005,05,24,16,58,16.70
2005,05,24,16,59,16.60
2005,05,24,17,00,16.60
2005,05,24,17,01,16.50
2005,05,24,17,02,16.40
2005,05,24,17,03,16.40
2005,05,24,17,04,16.40
2005,05,24,17,05,16.30
2005,05,24,17,06,16.30
2005,05,24,17,07,16.20
2005,05,24,17,08,16.00
2005,05,24,17,09,15.90
2005,05,24,17,10,15.80
2005,05,24,17,11,15.90
2005,05,24,17,12,15.90
2005,05,24,17,13,15.90
2005,05,24,17,14,16.00
2005,05,24,17,15,16.10
2005,05,24,17,16,16.10
2005,05,24,17,17,16.20
2005,05,24,17,18,16.20
2005,05,24,17,19,16.30
2005,05,24,17,20,16.30
2005,05,24,17,21,16.40
2005,05,24,17,22,16.40
2005,05,24,17,23,16.50
2005,05,24,17,24,16.60
2005,05,24,17,25,16.50
2005,05,24,17,26,16.40
2005,05,24,17,27,16.40
2005,05,24,17,28,16.40
2005,05,24,17,29,16.40
2005,05,24,17,30,16.50
2005,05,24,17,31,16.60
2005,05,24,17,32,16.60
2005,05,24,17,33,16.70
2005,05,24,17,34,16.70
2005,05,24,17,35,16.80
2005,05,24,17,36,16.90
2005,05,24,17,37,17.00
2005,05,24,17,38,17.10
2005,05,24,17,39,17.00
2005,05,24,17,40,17.00
2005,05,24,17,41,17.00
2005,05,24,17,42,17.10
2005,05,24,17,43,17.10
2005,05,24,17,44,17.10
2005,05,24,17,45,17.10
2005,05,24,17,46,17.20
2005,05,24,17,47,17.30
2005,05,24,17,48,17.30
2005,05,24,17,49,17.30
2005,05,24,17,50,17.30
2005,05,24,17,51,17.30
2005,05,24,17,52,17.30
2005,05,24,17,53,17.50
2005,05,24,17,54,17.60
2005,05,24,17,55,17.60
2005,05,24,17,56,17.50
2005,05,24,17,57,17.60
2005,05,24,17,58,17.60
2005,05,24,17,59,17.70
2005,05,24,18,00,17.70
2005,05,24,18,01,17.70
2005,05,24,18,02,17.70
2005,05,24,18,03,17.70
2005,05,24,18,04,17.60
2005,05,24,18,05,17.50
2005,05,24,18,06,17.40
2005,05,24,18,07,17.30
2005,05,24,18,08,17.10
2005,05,24,18,09,17.00
2005,05,24,18,10,16.90
2005,05,24,18,11,16.90
2005,05,24,18,12,16.90
2005,05,24,18,13,17.00
2005,05,24,18,14,17.10
2005,05,24,18,15,17.30
2005,05,24,18,16,17.40
2005,05,24,18,17,17.40
2005,05,24,18,18,17.50
2005,05,24,18,19,17.50
2005,05,24,18,20,17.50
2005,05,24,18,21,17.50
2005,05,24,18,22,17.60
2005,05,24,18,23,17.50